GFSNE_850_dewp_021.txt.gz
Dewpoint
-3 -3 -4 -4 -5 -5 -5 -5 -5 -6 -8 -9 -10 -9 -8 -9 -8 -7 -8 -14 -24 -22 -23 -21 -17 -4 -1 -2 -3 -1 -0 -3 1 5 6 4 6 6
-6 -6 -6 -7 -9 -11 -11 -6 -7 -8 -10 -12 -12 -10 -9 -9 -10 -8 -7 -9 -17 -21 -23 -24 -22 -18 -4 -3 -5 -4 -1 -0 -1 1 3 4 6 6
-8 -9 -10 -11 -12 -10 -9 -9 -9 -9 -9 -10 -9 -9 -8 -8 -8 -8 -8 -7 -8 -15 -19 -20 -22 -22 -19 -8 -6 -2 -3 -2 -1 -2 -1 0 3 5
-10 -12 -14 -14 -11 -9 -9 -8 -8 -8 -8 -9 -9 -9 -8 -8 -8 -8 -8 -9 -9 -8 -14 -19 -19 -19 -20 -19 -10 -5 -5 -5 -3 -4 -3 -2 -1 1
-14 -15 -15 -14 -11 -9 -9 -9 -9 -10 -10 -10 -10 -10 -10 -9 -9 -8 -8 -8 -8 -10 -17 -19 -20 -20 -21 -20 -17 -11 -7 -6 -6 -5 -5 -5 -2 -1
-15 -15 -14 -13 -11 -10 -10 -10 -10 -10 -9 -9 -9 -9 -9 -9 -8 -8 -8 -7 -7 -7 -9 -13 -14 -16 -18 -20 -21 -19 -11 -8 -6 -6 -6 -7 -7 -4
-17 -17 -16 -17 -17 -15 -11 -9 -9 -8 -8 -9 -8 -9 -9 -9 -8 -8 -8 -8 -8 -7 -7 -7 -7 -7 -8 -14 -18 -20 -20 -13 -10 -6 -6 -7 -6 -11
-12 -12 -14 -13 -11 -12 -11 -11 -10 -9 -9 -9 -8 -9 -9 -9 -9 -9 -9 -8 -8 -7 -7 -7 -7 -7 -6 -6 -8 -15 -17 -18 -13 -8 -2 -4 -7 -10
-12 -11 -10 -10 -10 -10 -10 -10 -9 -9 -10 -10 -9 -9 -9 -9 -9 -8 -8 -8 -8 -8 -8 -8 -8 -7 -7 -7 -6 -10 -12 -14 -12 -4 -1 -4 -7 -9
-12 -10 -10 -10 -10 -10 -9 -10 -10 -9 -9 -9 -9 -9 -9 -9 -9 -9 -8 -8 -9 -8 -8 -8 -8 -8 -8 -7 -8 -7 -6 -7 -9 -6 -4 -3 -7 -8
-10 -10 -10 -10 -10 -10 -10 -10 -9 -9 -9 -10 -10 -9 -9 -10 -9 -9 -9 -9 -9 -9 -9 -9 -8 -8 -8 -8 -11 -11 -8 -6 -4 -5 -5 -5 -6 -8
-10 -10 -10 -10 -10 -10 -10 -10 -10 -10 -10 -10 -10 -9 -9 -9 -9 -9 -9 -9 -9 -9 -9 -8 -8 -8 -7 -7 -11 -11 -11 -9 -5 -3 -3 -4 -6 -7
-10 -10 -10 -10 -10 -10 -11 -11 -10 -10 -10 -9 -10 -9 -9 -9 -9 -9 -9 -9 -8 -8 -9 -8 -9 -8 -8 -8 -7 -8 -9 -10 -6 -4 -4 -5 -6 -7
-11 -11 -10 -11 -11 -11 -11 -10 -9 -9 -9 -9 -9 -8 -8 -8 -8 -8 -8 -9 -9 -9 -8 -8 -8 -8 -8 -8 -8 -7 -9 -7 -6 -5 -5 -6 -7 -7
-11 -11 -11 -11 -11 -12 -10 -10 -9 -9 -9 -8 -9 -9 -9 -8 -8 -9 -8 -8 -8 -8 -9 -9 -9 -8 -8 -8 -7 -7 -7 -7 -7 -6 -5 -5 -5 -5
-12 -11 -11 -11 -11 -11 -11 -10 -10 -9 -9 -9 -9 -9 -8 -8 -8 -8 -8 -9 -9 -9 -9 -9 -9 -8 -8 -8 -7 -8 -8 -7 -7 -7 -6 -7 -6 -6
-12 -12 -11 -12 -12 -12 -11 -11 -10 -10 -9 -9 -9 -8 -8 -8 -8 -9 -8 -9 -9 -8 -8 -8 -8 -8 -8 -8 -8 -8 -7 -7 -8 -8 -8 -8 -8 -8
-12 -12 -12 -12 -12 -12 -12 -12 -11 -11 -10 -9 -8 -8 -8 -8 -8 -8 -8 -9 -8 -8 -8 -8 -8 -8 -8 -8 -8 -8 -7 -7 -8 -9 -9 -9 -9 -8
-12 -13 -13 -12 -13 -13 -12 -12 -12 -11 -11 -10 -9 -9 -8 -8 -8 -8 -7 -8 -8 -8 -8 -8 -8 -8 -7 -7 -8 -8 -8 -8 -8 -8 -8 -7 -7 -7
-13 -13 -13 -13 -13 -13 -13 -13 -12 -12 -12 -11 -10 -10 -9 -9 -10 -9 -8 -8 -8 -8 -8 -8 -8 -8 -7 -7 -8 -8 -8 -8 -8 -7 -7 -7 -7 -8
-14 -14 -13 -13 -13 -13 -13 -13 -12 -12 -12 -12 -11 -11 -10 -10 -10 -9 -9 -9 -9 -9 -9 -8 -8 -8 -8 -8 -8 -9 -9 -9 -8 -8 -8 -8 -8 -9
-14 -14 -14 -14 -15 -15 -15 -14 -13 -13 -13 -13 -12 -12 -11 -11 -10 -10 -10 -9 -9 -9 -9 -9 -9 -9 -8 -8 -9 -9 -10 -10 -9 -9 -9 -9 -9 -9
-15 -17 -19 -18 -18 -17 -16 -17 -17 -15 -13 -13 -13 -13 -12 -11 -11 -10 -10 -10 -10 -10 -10 -10 -9 -9 -9 -9 -9 -10 -10 -10 -10 -10 -10 -10 -10 -10

GFSNE_850_dewp_024.txt.gz
Dewpoint
-4 -4 -4 -4 -4 -5 -5 -4 -4 -4 -4 -6 -6 -6 -7 -7 -7 -6 -6 -6 -7 -10 -22 -25 -26 -24 -24 -16 -3 -1 -2 -3 -6 -7 -4 0 6 7
-4 -4 -4 -4 -4 -4 -5 -4 -5 -6 -8 -10 -11 -12 -11 -11 -10 -8 -8 -8 -8 -8 -15 -26 -26 -26 -24 -22 -12 -2 -1 -4 -3 -5 -6 -5 1 5
-4 -5 -6 -7 -9 -9 -9 -9 -9 -10 -10 -11 -11 -11 -10 -9 -9 -8 -8 -8 -8 -7 -7 -13 -23 -23 -25 -25 -23 -10 -2 -3 -5 -4 -3 -4 -3 1
-7 -8 -9 -11 -10 -10 -10 -9 -10 -10 -10 -11 -11 -11 -10 -10 -9 -8 -8 -9 -9 -10 -9 -9 -14 -20 -20 -21 -22 -22 -11 -4 -5 -4 -4 -3 -4 -3
-9 -9 -9 -9 -9 -9 -9 -10 -10 -11 -11 -11 -11 -11 -11 -11 -10 -10 -9 -9 -9 -9 -9 -9 -9 -14 -21 -21 -21 -21 -21 -11 -6 -3 -4 -3 -4 -4
-9 -9 -9 -8 -9 -9 -10 -10 -11 -11 -11 -11 -11 -11 -11 -11 -10 -10 -9 -9 -9 -9 -9 -8 -8 -8 -9 -18 -21 -21 -22 -21 -12 -6 -5 -6 -4 -5
-10 -9 -9 -9 -10 -13 -11 -10 -10 -10 -11 -10 -9 -9 -9 -9 -9 -9 -8 -8 -8 -7 -7 -7 -6 -6 -7 -7 -10 -16 -21 -23 -22 -14 -7 -6 -6 -5
-9 -9 -10 -10 -10 -9 -9 -9 -9 -9 -8 -8 -8 -8 -8 -8 -8 -8 -7 -7 -7 -7 -7 -7 -7 -7 -6 -7 -7 -6 -6 -9 -19 -22 -16 -8 -6 -6
-9 -10 -10 -11 -10 -9 -9 -9 -9 -9 -9 -9 -9 -8 -8 -8 -8 -8 -8 -7 -8 -8 -8 -7 -7 -7 -7 -7 -7 -6 -6 -8 -12 -17 -20 -18 -10 -6
-9 -10 -10 -9 -9 -9 -10 -9 -9 -9 -9 -9 -8 -8 -8 -9 -8 -8 -8 -8 -8 -8 -8 -7 -8 -8 -7 -7 -7 -7 -7 -7 -8 -11 -15 -18 -15 -9
-10 -9 -9 -9 -10 -10 -10 -10 -9 -8 -9 -9 -9 -10 -10 -10 -10 -8 -8 -8 -8 -8 -8 -7 -8 -9 -7 -8 -7 -7 -7 -10 -9 -8 -9 -12 -12 -4
-10 -10 -10 -10 -10 -10 -10 -9 -9 -9 -9 -9 -9 -9 -9 -10 -10 -10 -9 -8 -8 -8 -9 -7 -7 -7 -7 -8 -7 -7 -6 -10 -11 -9 -7 -6 -7 -5
-10 -10 -9 -9 -10 -10 -11 -10 -10 -10 -10 -9 -9 -9 -9 -9 -8 -8 -8 -8 -8 -8 -8 -7 -7 -8 -7 -7 -7 -7 -7 -7 -8 -11 -7 -5 -4 -4
-11 -10 -10 -11 -11 -11 -11 -11 -11 -10 -9 -9 -9 -8 -8 -8 -8 -8 -8 -8 -8 -8 -8 -7 -8 -8 -8 -7 -7 -7 -6 -7 -8 -7 -7 -6 -4 -3
-11 -11 -11 -11 -11 -11 -11 -11 -10 -10 -9 -9 -9 -8 -8 -8 -8 -8 -8 -8 -8 -8 -8 -8 -8 -8 -7 -7 -7 -6 -6 -6 -9 -7 -6 -5 -4 -4
-12 -12 -12 -12 -12 -12 -12 -11 -11 -10 -10 -10 -9 -9 -8 -8 -8 -8 -8 -8 -8 -8 -8 -9 -8 -8 -8 -8 -7 -7 -7 -6 -6 -6 -6 -6 -5 -5
-12 -12 -12 -12 -12 -12 -12 -11 -11 -11 -10 -10 -9 -9 -8 -8 -8 -8 -8 -8 -8 -7 -7 -8 -9 -8 -8 -8 -8 -7 -7 -7 -6 -7 -6 -6 -6 -6
-12 -13 -13 -13 -13 -12 -12 -12 -12 -12 -11 -11 -10 -9 -9 -8 -8 -8 -7 -8 -8 -7 -7 -7 -7 -8 -8 -8 -8 -7 -7 -7 -7 -7 -8 -7 -6 -6
-13 -13 -13 -13 -13 -13 -13 -13 -12 -12 -12 -11 -11 -10 -10 -10 -8 -8 -8 -8 -8 -8 -7 -7 -7 -7 -7 -6 -7 -8 -8 -7 -7 -7 -8 -8 -7 -6
-14 -14 -14 -14 -13 -14 -14 -14 -13 -13 -13 -12 -12 -11 -10 -10 -9 -9 -9 -8 -8 -7 -7 -8 -8 -7 -7 -6 -6 -8 -8 -8 -7 -7 -8 -7 -7 -7
-14 -14 -14 -14 -15 -15 -15 -14 -14 -13 -13 -13 -13 -12 -11 -11 -10 -10 -10 -9 -9 -9 -8 -8 -8 -8 -8 -8 -8 -8 -9 -9 -8 -8 -8 -8 -8 -8
-15 -15 -16 -16 -16 -15 -15 -15 -14 -14 -14 -13 -13 -13 -12 -11 -11 -11 -10 -10 -9 -9 -9 -9 -9 -9 -9 -9 -8 -9 -10 -10 -9 -9 -9 -9 -8 -7
-25 -22 -20 -19 -18 -17 -17 -16 -15 -15 -14 -13 -13 -13 -13 -12 -12 -11 -11 -11 -10 -10 -10 -9 -9 -10 -10 -9 -9 -10 -10 -10 -10 -10 -10 -10 -10 -10

GFSNE_850_dewp_027.txt.gz
Dewpoint
-3 -3 -3 -4 -4 -4 -4 -4 -4 -3 -4 -4 -2 -1 -1 -1 -3 -4 -4 -4 -5 -5 -6 -9 -15 -20 -21 -22 -22 -21 -21 -17 -10 -8 -9 -8 -10 -7
-3 -3 -3 -3 -3 -3 -4 -5 -6 -5 -4 -6 -6 -6 -7 -7 -8 -9 -8 -7 -7 -7 -7 -7 -10 -17 -23 -27 -27 -26 -25 -22 -10 -4 -3 -5 -6 -7
-4 -4 -4 -5 -7 -8 -8 -7 -5 -6 -7 -8 -10 -10 -10 -10 -9 -9 -8 -8 -7 -7 -7 -8 -8 -9 -15 -22 -25 -27 -26 -25 -17 -5 -2 -4 -5 -6
-6 -7 -9 -10 -10 -10 -10 -10 -10 -10 -10 -10 -10 -11 -11 -10 -10 -9 -9 -9 -9 -9 -9 -9 -9 -9 -10 -14 -19 -22 -25 -26 -25 -15 -3 -3 -4 -5
-9 -10 -10 -9 -9 -9 -9 -9 -10 -10 -11 -11 -11 -12 -12 -11 -11 -11 -10 -9 -9 -9 -9 -9 -9 -9 -9 -11 -13 -15 -19 -22 -24 -24 -13 -4 -4 -4
-10 -9 -9 -9 -9 -9 -9 -9 -10 -10 -11 -11 -11 -11 -11 -11 -11 -10 -10 -10 -9 -9 -10 -10 -9 -9 -8 -8 -9 -13 -20 -23 -24 -25 -25 -15 -6 -4
-10 -10 -10 -9 -9 -10 -10 -10 -10 -10 -10 -10 -10 -10 -11 -10 -10 -10 -9 -9 -8 -8 -7 -7 -7 -6 -6 -5 -6 -7 -9 -15 -19 -22 -24 -25 -17 -6
-10 -10 -10 -9 -10 -10 -10 -10 -9 -9 -9 -9 -8 -9 -8 -8 -8 -8 -7 -7 -7 -8 -7 -8 -8 -7 -7 -7 -7 -5 -5 -5 -6 -8 -18 -24 -24 -18
-9 -9 -9 -10 -10 -9 -8 -9 -9 -9 -9 -9 -9 -9 -8 -8 -8 -8 -7 -7 -7 -8 -7 -6 -8 -8 -8 -7 -7 -8 -7 -6 -6 -6 -7 -12 -21 -24
-9 -9 -9 -10 -9 -10 -9 -9 -9 -9 -8 -8 -9 -8 -8 -8 -8 -8 -7 -8 -8 -8 -8 -7 -9 -8 -9 -9 -7 -9 -9 -9 -8 -7 -7 -8 -12 -18
-10 -10 -9 -9 -9 -9 -9 -9 -9 -9 -9 -8 -8 -9 -10 -11 -11 -11 -9 -9 -7 -8 -9 -8 -8 -9 -9 -9 -9 -10 -9 -9 -8 -8 -9 -10 -9 -13
-10 -10 -11 -10 -10 -10 -9 -10 -10 -10 -9 -9 -10 -9 -9 -9 -9 -9 -10 -9 -9 -9 -10 -8 -7 -7 -6 -9 -10 -10 -8 -8 -8 -9 -10 -11 -10 -8
-11 -11 -11 -10 -9 -10 -10 -10 -10 -10 -10 -10 -9 -9 -8 -8 -8 -8 -8 -8 -9 -9 -10 -8 -7 -7 -7 -7 -9 -8 -7 -7 -6 -7 -8 -10 -10 -7
-11 -11 -10 -11 -12 -11 -11 -11 -11 -11 -10 -9 -9 -9 -8 -7 -7 -7 -7 -7 -8 -8 -8 -7 -7 -7 -7 -6 -7 -8 -7 -8 -7 -7 -8 -6 -9 -8
-12 -11 -12 -11 -11 -11 -11 -11 -11 -10 -10 -10 -9 -9 -8 -8 -8 -8 -8 -8 -8 -8 -8 -8 -8 -8 -7 -7 -7 -8 -7 -7 -6 -7 -8 -6 -5 -7
-12 -12 -11 -11 -11 -11 -11 -11 -11 -10 -10 -10 -10 -9 -9 -8 -8 -8 -8 -7 -7 -7 -8 -9 -9 -9 -8 -9 -8 -8 -9 -7 -6 -7 -6 -6 -6 -5
-12 -12 -12 -12 -12 -12 -12 -12 -11 -11 -11 -10 -10 -9 -9 -8 -8 -7 -8 -8 -7 -7 -7 -7 -8 -9 -9 -9 -8 -8 -8 -8 -8 -7 -6 -6 -6 -6
-13 -13 -13 -13 -13 -13 -12 -12 -12 -12 -11 -11 -11 -10 -9 -9 -9 -8 -7 -7 -8 -8 -7 -7 -6 -7 -8 -9 -9 -9 -8 -7 -7 -7 -6 -7 -7 -6
-13 -13 -13 -14 -14 -13 -13 -13 -13 -13 -12 -12 -11 -11 -10 -10 -9 -9 -9 -8 -7 -7 -7 -7 -7 -6 -6 -6 -6 -7 -8 -7 -7 -7 -6 -8 -7 -7
-14 -14 -14 -14 -14 -14 -14 -13 -13 -13 -13 -12 -12 -12 -11 -11 -10 -10 -9 -9 -9 -8 -7 -7 -7 -7 -7 -7 -7 -7 -7 -7 -8 -8 -6 -7 -8 -7
-15 -15 -15 -15 -15 -15 -15 -14 -14 -13 -13 -13 -12 -12 -12 -11 -11 -10 -10 -9 -9 -9 -8 -8 -9 -9 -8 -8 -8 -8 -8 -8 -8 -8 -7 -7 -7 -8
-15 -15 -15 -15 -15 -15 -15 -15 -14 -14 -14 -14 -13 -12 -12 -12 -11 -11 -11 -10 -10 -9 -10 -9 -9 -9 -9 -9 -8 -9 -9 -10 -9 -9 -8 -8 -7 -7
-17 -16 -16 -16 -16 -16 -16 -16 -15 -15 -15 -15 -14 -13 -12 -12 -12 -11 -11 -11 -11 -10 -10 -9 -9 -9 -9 -9 -9 -10 -10 -10 -9 -10 -10 -9 -9 -8

GFSNE_850_dewp_030.txt.gz
Dewpoint
-2 -2 -2 -3 -2 -3 -5 -5 -4 -4 -6 -6 -3 -3 -2 -1 -1 -1 -1 -2 -2 -3 -4 -5 -5 -9 -14 -15 -15 -16 -17 -19 -19 -19 -17 -15 -14 -12
-6 -7 -6 -6 -5 -5 -5 -4 -4 -4 -5 -7 -8 -8 -6 -5 -4 -3 -6 -6 -5 -5 -5 -5 -5 -6 -9 -12 -16 -19 -20 -22 -22 -22 -21 -15 -13 -9
-5 -5 -5 -6 -7 -8 -8 -9 -7 -6 -4 -5 -7 -7 -8 -8 -7 -7 -6 -7 -8 -9 -8 -8 -8 -8 -8 -10 -12 -19 -28 -28 -27 -25 -23 -22 -10 -8
-6 -8 -9 -9 -9 -9 -9 -9 -9 -9 -9 -9 -9 -9 -10 -10 -10 -10 -10 -9 -8 -8 -7 -7 -8 -8 -8 -9 -9 -11 -14 -25 -29 -28 -27 -24 -21 -7
-10 -11 -10 -9 -9 -9 -9 -8 -8 -9 -9 -9 -10 -10 -11 -11 -11 -11 -11 -10 -10 -10 -9 -9 -9 -9 -9 -9 -9 -10 -10 -12 -15 -21 -25 -27 -25 -23
-11 -13 -10 -10 -10 -9 -9 -9 -9 -8 -9 -9 -10 -10 -10 -10 -10 -11 -9 -9 -9 -9 -9 -10 -9 -9 -9 -9 -9 -9 -9 -9 -11 -15 -22 -26 -27 -27
-11 -13 -11 -10 -9 -9 -9 -9 -9 -10 -11 -10 -9 -8 -8 -8 -8 -8 -9 -9 -9 -8 -8 -8 -8 -8 -7 -6 -6 -7 -7 -7 -6 -6 -11 -18 -24 -25
-11 -12 -9 -8 -9 -9 -8 -8 -9 -9 -9 -9 -10 -10 -11 -10 -10 -9 -9 -10 -10 -12 -11 -11 -11 -11 -11 -9 -8 -7 -7 -8 -6 -5 -6 -7 -13 -21
-10 -9 -9 -9 -9 -9 -9 -9 -9 -9 -11 -11 -10 -10 -10 -11 -10 -10 -10 -10 -9 -10 -9 -8 -8 -9 -9 -9 -10 -10 -8 -8 -8 -7 -5 -5 -6 -9
-11 -11 -11 -11 -11 -11 -11 -11 -11 -9 -10 -9 -9 -9 -8 -8 -8 -8 -8 -8 -8 -8 -8 -8 -10 -9 -10 -10 -11 -10 -10 -9 -9 -10 -10 -9 -7 -7
-13 -12 -11 -12 -12 -11 -10 -10 -11 -11 -11 -10 -9 -9 -8 -9 -10 -9 -9 -9 -9 -10 -11 -9 -8 -9 -9 -9 -10 -11 -11 -11 -11 -11 -10 -10 -10 -10
-13 -13 -13 -12 -11 -10 -10 -10 -10 -10 -10 -11 -11 -11 -11 -11 -10 -9 -8 -8 -8 -8 -10 -9 -10 -9 -8 -10 -10 -10 -9 -9 -9 -9 -10 -10 -10 -9
-13 -12 -12 -11 -10 -10 -11 -11 -11 -11 -11 -11 -11 -10 -9 -9 -8 -8 -8 -8 -8 -8 -10 -8 -9 -9 -8 -8 -9 -9 -9 -10 -9 -7 -7 -7 -7 -9
-12 -12 -12 -12 -11 -11 -11 -11 -11 -11 -11 -10 -10 -9 -9 -8 -8 -8 -8 -8 -8 -7 -7 -7 -7 -7 -7 -7 -7 -9 -9 -8 -7 -7 -7 -7 -7 -7
-13 -12 -12 -11 -11 -11 -11 -11 -11 -11 -10 -9 -9 -9 -9 -9 -9 -8 -8 -8 -7 -8 -9 -8 -8 -8 -8 -8 -8 -7 -7 -9 -9 -7 -7 -6 -7 -8
-13 -12 -12 -12 -12 -12 -11 -11 -11 -10 -10 -10 -10 -9 -9 -8 -8 -7 -7 -9 -9 -8 -8 -8 -8 -9 -9 -9 -9 -9 -10 -8 -10 -10 -6 -7 -8 -6
-13 -12 -12 -13 -13 -13 -12 -12 -11 -11 -11 -11 -10 -10 -10 -9 -9 -9 -7 -7 -8 -8 -8 -7 -7 -7 -8 -9 -8 -9 -9 -10 -10 -8 -7 -7 -8 -8
-13 -13 -13 -13 -13 -13 -13 -13 -13 -12 -12 -12 -11 -11 -11 -10 -10 -9 -9 -8 -8 -7 -8 -7 -8 -6 -7 -9 -10 -10 -10 -10 -9 -8 -7 -6 -7 -8
-14 -14 -14 -14 -14 -14 -14 -14 -13 -13 -12 -12 -12 -11 -11 -11 -10 -10 -10 -9 -9 -9 -8 -6 -6 -6 -7 -7 -7 -7 -7 -7 -8 -7 -7 -7 -6 -7
-14 -14 -15 -15 -14 -14 -14 -14 -13 -13 -13 -13 -12 -12 -11 -11 -10 -11 -11 -10 -10 -9 -8 -8 -9 -10 -9 -8 -8 -8 -8 -8 -8 -7 -8 -7 -7 -8
-15 -15 -15 -15 -15 -15 -15 -15 -14 -14 -14 -14 -13 -12 -12 -11 -11 -11 -11 -10 -10 -10 -9 -9 -10 -9 -9 -8 -8 -8 -8 -9 -8 -8 -8 -7 -7 -7
-18 -16 -15 -16 -16 -16 -16 -16 -15 -15 -15 -15 -14 -13 -12 -12 -11 -11 -11 -11 -10 -10 -10 -10 -10 -10 -10 -9 -8 -9 -10 -10 -10 -9 -9 -8 -7 -7
-23 -25 -18 -19 -22 -21 -20 -19 -20 -24 -22 -22 -16 -14 -13 -13 -12 -12 -12 -12 -12 -12 -11 -9 -10 -10 -10 -10 -9 -10 -10 -10 -9 -10 -10 -9 -9 -8

GFSNE_850_dewp_033.txt.gz
Dewpoint
-5 -6 -7 -6 -5 -4 -4 -4 -4 -4 -4 -7 -8 -8 -8 -7 -5 -2 -2 -2 -1 -1 -1 -2 -3 -3 -3 -4 -5 -11 -13 -14 -14 -15 -15 -16 -15 -15
-6 -5 -5 -5 -5 -6 -6 -6 -5 -5 -4 -5 -9 -8 -8 -7 -8 -8 -3 -3 -3 -3 -3 -3 -5 -6 -8 -7 -7 -8 -11 -13 -16 -18 -18 -18 -19 -16
-6 -5 -5 -7 -8 -9 -9 -9 -9 -8 -7 -7 -8 -8 -9 -9 -9 -7 -6 -6 -4 -4 -4 -7 -8 -9 -9 -10 -10 -10 -12 -13 -14 -18 -22 -23 -21 -22
-8 -7 -8 -10 -13 -13 -10 -9 -9 -9 -8 -8 -8 -8 -9 -10 -10 -10 -10 -9 -8 -7 -6 -6 -7 -7 -7 -8 -8 -8 -9 -11 -12 -13 -17 -20 -23 -26
-9 -9 -10 -11 -14 -15 -10 -10 -10 -9 -9 -8 -8 -8 -9 -10 -11 -12 -13 -13 -12 -11 -10 -10 -10 -9 -9 -9 -9 -9 -9 -10 -10 -10 -13 -15 -16 -22
-10 -10 -10 -12 -13 -11 -9 -9 -8 -9 -9 -10 -12 -12 -12 -11 -10 -10 -10 -8 -8 -9 -9 -9 -10 -10 -10 -10 -10 -9 -9 -9 -9 -9 -10 -10 -12 -15
-10 -10 -11 -12 -10 -8 -8 -8 -8 -7 -8 -9 -10 -10 -10 -12 -13 -11 -9 -8 -8 -8 -9 -8 -7 -7 -8 -8 -8 -8 -8 -9 -9 -8 -9 -9 -9 -12
-11 -13 -14 -12 -10 -9 -8 -9 -9 -8 -8 -8 -8 -9 -11 -12 -11 -11 -11 -11 -11 -11 -12 -12 -12 -12 -10 -10 -10 -11 -11 -9 -8 -8 -9 -9 -9 -8
-13 -14 -14 -13 -12 -12 -11 -12 -11 -11 -10 -10 -9 -11 -10 -10 -9 -9 -9 -10 -10 -11 -11 -11 -12 -12 -11 -10 -10 -10 -10 -9 -9 -9 -9 -9 -9 -9
-12 -12 -13 -13 -12 -12 -12 -12 -12 -12 -11 -10 -10 -11 -10 -9 -8 -9 -9 -9 -9 -9 -9 -10 -10 -11 -12 -12 -12 -11 -11 -11 -11 -10 -10 -10 -10 -10
-12 -12 -13 -13 -13 -11 -11 -11 -11 -11 -11 -10 -10 -10 -10 -11 -9 -9 -8 -9 -9 -10 -11 -10 -11 -12 -11 -11 -10 -11 -11 -11 -11 -11 -10 -10 -10 -10
-12 -13 -14 -13 -12 -11 -11 -11 -11 -13 -12 -12 -12 -12 -12 -11 -11 -11 -10 -9 -9 -9 -11 -8 -9 -9 -8 -12 -11 -12 -11 -10 -9 -9 -9 -10 -10 -10
-13 -14 -14 -13 -12 -12 -11 -11 -11 -11 -11 -11 -11 -10 -9 -9 -9 -8 -7 -7 -8 -8 -9 -8 -9 -9 -8 -9 -11 -11 -11 -10 -9 -9 -9 -7 -7 -7
-13 -13 -13 -11 -11 -11 -11 -11 -11 -11 -11 -10 -10 -9 -9 -9 -9 -8 -8 -8 -8 -8 -8 -7 -7 -8 -7 -7 -8 -10 -9 -9 -8 -8 -8 -8 -7 -7
-13 -12 -12 -12 -12 -12 -12 -11 -11 -10 -10 -10 -10 -10 -9 -9 -8 -8 -7 -7 -8 -8 -7 -8 -8 -7 -7 -8 -8 -9 -9 -9 -7 -8 -9 -9 -9 -7
-13 -13 -13 -13 -13 -12 -12 -12 -12 -12 -11 -11 -11 -10 -10 -9 -9 -8 -8 -7 -8 -8 -8 -8 -8 -8 -8 -8 -9 -9 -9 -8 -9 -9 -9 -11 -10 -9
-13 -13 -14 -14 -14 -13 -13 -13 -12 -12 -12 -12 -11 -11 -11 -10 -9 -9 -9 -9 -8 -7 -8 -8 -7 -7 -7 -7 -7 -8 -9 -8 -9 -9 -9 -10 -9 -9
-14 -14 -14 -14 -14 -14 -14 -14 -13 -13 -13 -12 -12 -11 -11 -11 -10 -10 -10 -9 -9 -9 -8 -7 -7 -8 -6 -7 -7 -8 -7 -8 -8 -7 -7 -7 -8 -7
-15 -15 -15 -15 -15 -15 -15 -14 -14 -14 -13 -13 -12 -12 -11 -11 -10 -11 -11 -10 -10 -9 -8 -8 -8 -8 -8 -8 -8 -8 -8 -8 -7 -8 -8 -8 -7 -9
-16 -15 -15 -15 -15 -16 -16 -15 -14 -14 -14 -13 -13 -12 -11 -11 -11 -11 -11 -10 -10 -10 -9 -9 -10 -10 -9 -8 -8 -8 -8 -8 -8 -8 -8 -7 -8 -7
-21 -20 -16 -16 -17 -18 -17 -17 -16 -16 -16 -15 -13 -13 -12 -12 -11 -11 -11 -11 -10 -10 -10 -10 -10 -10 -10 -9 -8 -8 -9 -10 -10 -9 -9 -8 -8 -7
-23 -28 -21 -20 -22 -22 -22 -21 -25 -29 -26 -20 -14 -13 -13 -13 -12 -12 -12 -12 -11 -12 -12 -10 -10 -10 -10 -10 -9 -10 -11 -10 -10 -10 -10 -9 -8 -7
-19 -31 -31 -31 -30 -29 -28 -29 -30 -31 -31 -24 -17 -15 -15 -14 -13 -13 -12 -13 -12 -12 -11 -10 -11 -9 -10 -10 -9 -10 -10 -11 -10 -10 -10 -10 -9 -9